[[{"header":{"parameterUnit":"m.s-1","parameterCategory":1,"la1":30.2991,"la2":30.254,"lo1":-89.0895,"lo2":-89.0444,"dy":0.0017,"dx":0.0017,"nx":28,"ny":28,"refTime":"2025-07-31T21:00:00:Z","depth":0,"parameterNumber":2,"parameterNumberName":"U-component_of_WINDS"},"data":[0,0,0,0,0,0,0,0,0,0,0,0,0,0,0,0,0,0,0,0,0,0,0,0,0,0,0,0,0,0,0,0,0,0,0,0,0,0,0,0,0,0,0,0,0,0,0,0,0,0,0,0,0,0,0,0,0,0,1.9698,1.9699,0,1.9808,1.9809,1.981,1.9846,1.9846,1.9845,1.9845,1.9963,1.9966,1.997,0,0,0,0,0,0,0,0,0,0,0,0,0,1.9525,1.9528,1.9698,1.9699,1.9701,1.9808,1.9809,1.9811,1.9846,1.9846,1.9845,1.9845,1.9962,1.9966,1.997,0,0,0,0,0,0,0,0,0,0,0,0,0,1.9614,1.9529,1.9698,1.9731,1.9735,1.9807,1.9809,1.9811,1.9847,1.9846,1.9845,1.9844,1.996,1.9965,1.9971,2.0019,0,0,1.9987,1.999,0,0,0,0,0,0,0,0,1.9609,1.962,1.9725,1.9729,1.9734,1.9813,1.9791,1.9881,1.9847,1.9805,1.9845,1.9844,1.9914,1.9923,1.9945,2.0024,2.0029,1.9988,1.9991,1.9993,1.9995,0,0,0,0,0,0,0,1.9603,1.9616,1.9742,1.9726,1.9732,1.9743,1.9755,1.9809,1.9862,1.9808,1.9811,1.9823,1.9916,1.994,1.9948,2.0031,1.9987,1.9992,1.9996,1.9998,2.0157,2.0158,0,0,0,0,0,0,1.959,1.961,1.9738,1.9745,1.9668,1.9747,1.976,1.9788,1.9862,1.9872,1.9824,1.9825,1.9931,1.9942,1.9953,2.0014,1.9993,1.9998,2.0001,2.0156,2.0157,2.0158,0,0,0,0,0,0,1.9586,1.9601,1.9734,1.9679,1.9696,1.975,1.9782,1.9791,1.9815,1.9873,1.9884,1.9838,1.9931,1.9945,2.0002,2.0019,2.0001,2.0006,2.0155,2.0157,2.0158,2.0137,0,0,0,0,0,0,1.9581,1.9599,1.9617,1.9679,1.9699,1.9779,1.9783,1.9793,1.9823,1.9825,1.9889,1.9899,1.9931,1.9994,2.0007,2.0026,2.001,2.0154,2.0156,2.0157,2.0137,2.0138,2.0139,0,0,0,0,0,1.9575,1.9607,1.9617,1.9633,1.9721,1.978,1.9792,1.9827,1.9824,1.9843,1.9881,1.9897,2.0015,1.9999,2.0015,2.0035,2.0153,2.0155,2.0157,2.0136,2.0138,2.0139,0,0,0,0,0,0,1.9547,1.9616,1.9628,1.9681,1.9724,1.9786,1.981,1.9827,1.9873,1.9873,1.9916,1.9931,1.9984,2.0016,1.9997,2.0087,2.0085,2.009,2.0064,2.0066,2.0067,2.0058,2.0014,0,0,0,0,0,1.9547,1.9587,1.9646,1.9687,1.9708,1.9756,1.9783,1.9806,1.9853,1.9872,1.9914,1.9961,2.0009,2.0039,2.0086,2.0142,2.0157,2.0164,2.0165,2.0166,2.017,2.0203,2.0207,2.0166,2.0166,2.0166,0,0,1.9548,1.959,1.9613,1.9683,1.9719,1.9762,1.9771,1.9815,1.9847,1.9879,1.9935,1.9968,2.0023,2.008,2.0107,2.0108,2.0185,2.0169,2.0169,2.0173,2.0206,2.0209,2.0213,2.0167,2.0167,2.0167,0,0,1.957,1.9606,1.9644,1.9681,1.9735,1.9767,1.9776,1.9836,1.9858,1.9915,1.994,1.9981,2.0061,2.01,2.013,2.0169,2.0186,2.0184,2.0189,2.0221,2.0224,2.0227,2.0241,2.0246,2.0188,2.0188,2.0188,0,1.9564,1.9627,1.9663,1.9706,1.9736,1.9766,1.9807,1.9841,1.9908,1.993,1.993,2.0032,2.0072,2.0138,2.0148,2.0172,2.0185,2.0176,2.022,2.0224,2.0227,2.0242,2.0247,2.0187,2.0187,2.0187,2.0187,0,1.9617,1.9661,1.9686,1.9749,1.9783,1.9824,1.9868,1.9899,1.992,1.9952,2.0011,2.0059,2.0117,2.0135,2.0156,2.0205,2.0204,2.0212,2.0211,2.023,2.0244,2.025,2.0186,2.0186,2.0187,2.0187,0,0,1.9623,1.9706,1.9715,1.9744,1.9808,1.9843,1.9888,1.9943,1.9968,2.0015,2.0054,2.0122,2.013,2.0164,2.0191,2.0219,2.0247,2.0224,2.0226,2.0226,2.0305,2.0298,2.0304,2.026,2.0261,2.0262,2.0301,0,1.9653,1.9731,1.9765,1.9828,1.987,1.99,1.9939,1.9983,2.0015,2.0057,2.0094,2.0141,2.0148,2.0169,2.0198,2.0237,2.0264,2.0235,2.0297,2.0299,2.0281,2.0311,2.0304,2.0338,2.0306,2.0307,2.0308,0,1.9698,1.9743,1.981,1.9869,1.9888,1.9922,1.9976,2.0015,2.0067,2.0089,2.0127,2.0153,2.0203,2.0199,2.0269,2.0249,2.0277,2.0301,2.0303,2.031,2.0304,2.0318,2.035,2.0355,2.0317,2.0316,2.0316,0,1.9696,1.9774,1.9824,1.9848,1.9919,1.9942,1.9973,2.0024,2.0055,2.0104,2.0125,2.0179,2.0208,2.0251,2.0291,2.0285,2.0358,2.0357,2.0378,2.0377,2.0391,2.0389,2.0427,2.041,2.041,2.041,2.041,0,1.9725,1.9765,1.9824,1.9854,1.99,1.9941,1.9986,2.002,2.0065,2.0104,2.0135,2.0172,2.0223,2.0267,2.0299,2.0353,2.0366,2.0386,2.0394,2.0383,2.038,2.0401,2.0399,2.0411,2.0411,2.0411,2.041,0,1.9729,1.977,1.9827,1.9889,1.9906,1.9937,1.9992,2.0024,2.0058,2.0107,2.0122,2.0176,2.0229,2.0274,2.0344,2.0366,2.0422,2.0431,2.0403,2.0407,2.0425,2.0423,2.0477,2.0487,2.0463,2.0464,2.0464,0,1.9745,1.9776,1.9842,1.9869,1.9899,1.9944,1.9976,2.0018,2.0051,2.0113,2.0138,2.0194,2.024,2.0324,2.0371,2.0426,2.0437,2.0452,2.0445,2.0433,2.0437,2.0434,2.0438,2.0452,2.0452,2.0452,2.0452,0,1.9768,1.9787,1.9831,1.9883,1.992,1.9963,2.0008,2.0029,2.008,2.0116,2.017,2.0206,2.0278,2.0333,2.0393,2.0427,2.0449,2.0454,2.0462,2.045,2.0432,2.0442,2.0404,2.0452,2.0452,2.0452,2.0452,2.0452,1.9779,1.9808,1.9859,1.9907,1.9945,1.9986,2.0019,2.0057,2.0103,2.0163,2.0187,2.0242,2.0296,2.0378,2.0413,2.0458,2.0461,2.0472,2.0475,2.0477,2.0475,2.0426,2.0469,2.0469,2.047,2.047,2.047,0,1.9803,1.9838,1.9882,1.9942,1.9981,1.9997,2.0048,2.008,2.0128,2.0175,2.022,2.0283,2.0337,2.0388,2.0445,2.0472,2.0484,2.0486,2.0484,2.0491,2.0469,2.0457,2.0475,2.0475,2.0475,2.0475,2.0475,2.0475,1.982,1.9871,1.9896,1.9967,2.0002,2.0055,2.0083,2.0121,2.0159,2.0227,2.0272,2.0305,2.0355,2.0416,2.0467,2.0481,2.05,2.0499,2.0516,2.0494,2.0493,2.0492,2.048,2.0503,2.0504,2.0535,2.0535,2.0535]},{"header":{"parameterUnit":"m.s-1","parameterCategory":1,"la1":30.2991,"la2":30.254,"lo1":-89.0895,"lo2":-89.0444,"dy":0.0017,"dx":0.0017,"nx":28,"ny":28,"refTime":"2025-07-31T21:00:00:Z","depth":0,"parameterNumber":3,"parameterNumberName":"V-component_of_WINDS"},"data":[0,0,0,0,0,0,0,0,0,0,0,0,0,0,0,0,0,0,0,0,0,0,0,0,0,0,0,0,0,0,0,0,0,0,0,0,0,0,0,0,0,0,0,0,0,0,0,0,0,0,0,0,0,0,0,0,0,0,3.8682,3.8683,0,3.8749,3.8749,3.875,3.8784,3.8784,3.8784,3.8784,3.8844,3.8846,3.8847,0,0,0,0,0,0,0,0,0,0,0,0,0,3.8576,3.8578,3.8682,3.8683,3.8684,3.8748,3.8749,3.875,3.8783,3.8784,3.8784,3.8784,3.8844,3.8846,3.8848,0,0,0,0,0,0,0,0,0,0,0,0,0,3.863,3.8578,3.8682,3.8708,3.8711,3.8748,3.8749,3.875,3.8783,3.8784,3.8784,3.8784,3.8843,3.8846,3.8848,3.8861,0,0,3.8855,3.8856,0,0,0,0,0,0,0,0,3.8627,3.8634,3.8704,3.8707,3.871,3.8758,3.8734,3.8787,3.8783,3.8756,3.8784,3.8784,3.8815,3.882,3.8832,3.8864,3.8867,3.8855,3.8857,3.8858,3.8858,0,0,0,0,0,0,0,3.8623,3.8631,3.8708,3.8704,3.8708,3.8714,3.8722,3.8744,3.8784,3.8758,3.8761,3.8769,3.8817,3.883,3.8834,3.8868,3.8855,3.8857,3.8859,3.886,3.8913,3.8913,0,0,0,0,0,0,3.8616,3.8628,3.8706,3.871,3.8668,3.8716,3.8725,3.8742,3.8784,3.8791,3.8769,3.877,3.8825,3.8831,3.8836,3.8854,3.8858,3.886,3.8861,3.8913,3.8913,3.8913,0,0,0,0,0,0,3.8614,3.8623,3.8703,3.867,3.868,3.8718,3.8737,3.8744,3.8757,3.8792,3.8798,3.8775,3.8826,3.8832,3.8855,3.8857,3.8861,3.8863,3.8913,3.8913,3.8913,3.8891,0,0,0,0,0,0,3.861,3.8622,3.8629,3.867,3.8682,3.8724,3.8738,3.8745,3.8761,3.8764,3.88,3.8805,3.8826,3.8851,3.8857,3.886,3.8865,3.8913,3.8913,3.8913,3.8892,3.889,3.8889,0,0,0,0,0,3.8607,3.8619,3.8629,3.8639,3.8693,3.8724,3.8731,3.8757,3.8762,3.8768,3.879,3.8804,3.8855,3.8853,3.886,3.8864,3.8913,3.8913,3.8913,3.8892,3.8891,3.8889,0,0,0,0,0,0,3.8575,3.8625,3.8637,3.8663,3.8689,3.873,3.8739,3.8754,3.8777,3.8778,3.8807,3.8815,3.8835,3.8851,3.8848,3.8878,3.8885,3.8887,3.8867,3.8866,3.8864,3.886,3.8867,0,0,0,0,0,3.8572,3.8595,3.8636,3.8655,3.8668,3.8701,3.8716,3.8733,3.8761,3.8771,3.8795,3.8819,3.884,3.8854,3.8876,3.8894,3.8901,3.89,3.8898,3.8897,3.8898,3.8908,3.8907,3.8913,3.8913,3.8913,0,0,3.8564,3.8594,3.8607,3.865,3.8672,3.8694,3.871,3.8732,3.8748,3.8774,3.8798,3.8816,3.8844,3.8864,3.8874,3.8879,3.8898,3.8897,3.8896,3.8897,3.8908,3.8907,3.8907,3.8913,3.8913,3.8913,0,0,3.8561,3.8587,3.8606,3.8628,3.8663,3.8684,3.8688,3.8726,3.874,3.8765,3.8785,3.8802,3.8838,3.8858,3.8872,3.8876,3.8889,3.8881,3.8874,3.8884,3.8883,3.8883,3.8884,3.8884,3.8882,3.8882,3.8882,0,3.8547,3.8583,3.8613,3.8634,3.8652,3.8678,3.8696,3.8715,3.8754,3.8764,3.8769,3.8815,3.8836,3.8861,3.8862,3.8873,3.8877,3.8878,3.8881,3.8881,3.8882,3.8883,3.8883,3.8881,3.8881,3.8881,3.8881,0,3.8563,3.8587,3.8598,3.8637,3.8656,3.8675,3.8705,3.872,3.8735,3.8756,3.8779,3.8805,3.8832,3.8839,3.8854,3.8866,3.8868,3.8876,3.8884,3.888,3.8881,3.8882,3.8879,3.888,3.888,3.888,0,0,3.8543,3.8599,3.8602,3.862,3.866,3.8678,3.8697,3.8726,3.8738,3.8762,3.8778,3.8808,3.8817,3.8833,3.885,3.8858,3.8859,3.8866,3.8867,3.8863,3.8873,3.8866,3.8866,3.8867,3.8867,3.8868,3.887,0,3.8546,3.8586,3.8613,3.864,3.8662,3.8687,3.8703,3.8728,3.8747,3.8766,3.8786,3.8807,3.8817,3.8827,3.8836,3.8857,3.8861,3.8857,3.8881,3.8881,3.8874,3.8867,3.886,3.8862,3.8871,3.8871,3.8871,0,3.8556,3.8583,3.8613,3.865,3.866,3.8675,3.8703,3.8722,3.8749,3.8762,3.878,3.8798,3.8816,3.8822,3.8847,3.8844,3.8855,3.8866,3.8867,3.887,3.8876,3.887,3.8863,3.8863,3.8872,3.8872,3.8872,0,3.8538,3.8582,3.8606,3.862,3.8663,3.8673,3.8691,3.8719,3.8734,3.8757,3.8767,3.8792,3.8805,3.8822,3.8844,3.8846,3.8867,3.8875,3.8877,3.8876,3.8881,3.888,3.8875,3.8887,3.8887,3.8887,3.8887,0,3.8539,3.8557,3.8599,3.8613,3.8633,3.8662,3.868,3.8699,3.8723,3.874,3.8762,3.8777,3.8805,3.8823,3.884,3.8858,3.8864,3.8873,3.8878,3.8872,3.8871,3.888,3.888,3.8887,3.8887,3.8887,3.8887,0,3.8523,3.8552,3.858,3.8619,3.8629,3.8642,3.8674,3.8688,3.8708,3.8729,3.8735,3.8766,3.8788,3.8812,3.8841,3.8852,3.8869,3.8875,3.8861,3.8864,3.8865,3.8864,3.8865,3.8867,3.8878,3.8877,3.8877,0,3.8522,3.8537,3.8578,3.8592,3.861,3.8633,3.8649,3.8677,3.8692,3.8724,3.8734,3.8758,3.8778,3.8812,3.8835,3.8857,3.8864,3.8862,3.8867,3.886,3.8864,3.8863,3.8864,3.8861,3.8861,3.8861,3.8861,0,3.8517,3.8531,3.8555,3.8584,3.8603,3.8627,3.8651,3.866,3.8692,3.8708,3.8732,3.8748,3.8779,3.8802,3.8827,3.8842,3.8856,3.8859,3.8861,3.8855,3.8846,3.8851,3.8858,3.8859,3.8859,3.8859,3.8859,3.8859,3.8509,3.8523,3.8554,3.858,3.8601,3.8623,3.8638,3.8661,3.8682,3.8711,3.8725,3.8748,3.8773,3.8809,3.8824,3.8841,3.8845,3.8848,3.8848,3.8848,3.8847,3.8843,3.8845,3.8845,3.8845,3.8845,3.8845,0,3.8505,3.8526,3.855,3.8584,3.8603,3.8617,3.8644,3.8659,3.868,3.8703,3.8724,3.875,3.8772,3.8797,3.882,3.8829,3.8836,3.8834,3.8834,3.8837,3.8842,3.8838,3.8828,3.8828,3.8828,3.8828,3.8828,3.8828,3.8505,3.853,3.8547,3.8581,3.8601,3.8627,3.8641,3.866,3.8679,3.8709,3.8728,3.8745,3.8768,3.8793,3.8813,3.8819,3.8827,3.8823,3.8831,3.8835,3.8837,3.8838,3.8835,3.8824,3.8824,3.8825,3.8825,3.8825]}]]